Regional Weather Roundup
Issued by NWS

Home | Current Version | Previous Version | Text Only | Print | Product List | Glossary On
Versions: 1 2 3 4 5 6 7 8 9 10 11 12 13 14 15 16 17 18 19 20 21 22 23 24 25 26 27 28
000
ASUS42 KTBW 231310
RWRFL
FLORIDA REGIONAL WEATHER ROUNDUP
NATIONAL WEATHER SERVICE TAMPA BAY RUSKIN FL
900 AM EDT THU OCT 23 2014

NOTE: "FAIR" INDICATES FEW OR NO CLOUDS BELOW 12,000 FEET WITH NO
SIGNIFICANT WEATHER AND/OR OBSTRUCTIONS TO VISIBILITY.


FLZ001>010-012>015-112-114-115-231400-
PANHANDLE FLORIDA

CITY           SKY/WX    TMP DP  RH WIND       PRES   REMARKS
PENSACOLA      SUNNY     56  45  66 NE8       30.09R
PENSACOLA NAS  MOSUNNY   54  49  83 NE8       30.08R
MILTON NAS     MOSUNNY   50  43  77 NE8       30.10S
CRESTVIEW      SUNNY     48  45  89 VRB3      30.12R
DUKE FIELD     FAIR      47  44  88 NE3       30.10R
VALPARAISO     MOSUNNY   53  45  74 NE7       30.10R
MARY ESTHER    SUNNY     53  43  69 NE10      30.08R
PANAMA CITY    FAIR      52  47  83 N6        30.09R
TYNDALL AFB    SUNNY     56  49  75 NE5       30.09R
APALACHICOLA   SUNNY     58  49  72 NE7       30.06R

STATION/POSITION SKY/WX   TEMP    WIND        PRES    WAVE   SWELL
                          AIR SEA DIR/SP/G            HT/PER HT/PER
                          (F)     (DEG/KT/KT) (MB)    (FT/S) (FT/S)
30.1N   87.6W              67 78   50/ 16/ 19 1017.5R   3/ 4
29.2N   88.2W              71 79   60/ 14/ 17 1017.8    5/ 6
28.8N   86.0W              73 80   80/ 12/ 16 1016.5    5/ 6
PANAMA CITY BEAC           52 76   10/  6/  7 1018.8R
CAPE SAN BLAS    NOT AVBL
TOWER C                    67      70/ 17/ 19 1017.3R
28.5N   84.5W              71 81   70/ 16/ 19 1016.0R   5/ 6

$$
FLZ011-016>038-118-127-128-134-139-239-231400-
NORTH FLORIDA

CITY           SKY/WX    TMP DP  RH WIND       PRES   REMARKS
MARIANNA       SUNNY     51  48  89 CALM      30.11R
TALLAHASSEE    SUNNY     52  45  77 CALM      30.08R
PERRY          SUNNY     54  46  76 NE6       30.08R
CROSS CITY       N/A     55  49  80 NE6       30.06R
LAKE CITY      FAIR      52  48  87 NE6       30.07R
GAINESVILLE    SUNNY     58  46  64 N8        30.05R
MAYPORT NAS    MOSUNNY   68  51  54 NE13      30.05R
JACKSONVILLE   MOSUNNY   57  52  83 N8        30.06R
JAX NAS        MOSUNNY   65  53  65 N13       30.06R
JAX CRAIG      SUNNY     63  54  72 N6        30.05R
JAX CECIL      SUNNY     55  50  82 N10       30.06R
FERNANDINA BEA FAIR      68  59  73 N5        30.04R
ST AUGUSTINE   MOSUNNY   64  55  72 NW7       30.05R

STATION/POSITION SKY/WX   TEMP    WIND        PRES    WAVE   SWELL
                          AIR SEA DIR/SP/G            HT/PER HT/PER
                          (F)     (DEG/KT/KT) (MB)    (FT/S) (FT/S)
SHELL POINT                55      30/  5/  8   N/A
KEATON BEACH               53      40/  5/  8 1018.4R
CEDAR KEY                  57      40/  9/ 12 1017.0R
FERNANDINA                 66 75   20/  6/ 11 1017.1R
30.7N   81.3W                 76                N/A     3/ 5
MAYPORT                    65 76  350/  6/ 14   N/A
31.4N   80.9W              65 75   40/  8/ 10 1018.2R   3/ 5   3/ 5
ST AUGUSTINE               69      30/ 14/ 16 1017.7R

$$
FLZ040-043>046-052-053-057-058-063-144-231400-
INTERIOR CENTRAL FLORIDA

CITY           SKY/WX    TMP DP  RH WIND       PRES   REMARKS
OCALA          SUNNY     57  46  67 NE3       30.02S
THE VILLAGES     N/A     61  54  77 N8        29.93R
LEESBURG       SUNNY     62  54  74 N7        30.03R
SANFORD        SUNNY     67  57  70 N5        30.01R
ORLANDO EXEC   SUNNY     67  57  70 N6        30.01R
ORLANDO INTL   MOSUNNY   67  58  72 N8        30.01R
KISSIMMEE      SUNNY     66  61  82 N6        30.01R
WINTER HAVEN   SUNNY     66  58  75 NE10      30.01R
LAKELAND       SUNNY     64  57  77 NE9       30.00R
OKEECHOBEE       N/A     66  63  88 MISG        N/A

$$
FLZ041-047-054-059-064-141-147-231400-
EAST CENTRAL FLORIDA

CITY           SKY/WX    TMP DP  RH WIND       PRES   REMARKS
ORMOND BEACH   MOSUNNY   64  57  77 CALM      30.02R
DAYTONA BEACH  MOSUNNY   67  57  70 NW3       30.02R
DELAND         SUNNY     63  55  77 N6        30.03R
NEW SMYRNA BEA MOSUNNY   72  55  56 NE12      30.01R
JFK SPACE CTR  MOSUNNY   72  60  64 E7        30.00R
TITUSVILLE     SUNNY     72  59  64 NE7       30.00R
CAPE CANAVERAL MOSUNNY   72  59  62 NE5       29.99R
PATRICK AFB    MOSUNNY   74  60  61 NE10      29.99R
MELBOURNE      MOSUNNY   76  60  57 NE12      29.98R
VERO BEACH     PTSUNNY   72  62  71 NE8       29.97R
FT PIERCE      PTSUNNY   75  63  66 NE5       29.97R
STUART         PTSUNNY   75  63  64 NE12G18   29.96R

STATION/POSITION SKY/WX   TEMP    WIND        PRES    WAVE   SWELL
                          AIR SEA DIR/SP/G            HT/PER HT/PER
                          (F)     (DEG/KT/KT) (MB)    (FT/S) (FT/S)
28.5N   80.2W              74 80   40/ 12/ 14 1015.2R
28.9N   78.5W              73 81   20/ 12/ 16 1015.6R   4/ 7   3/ 7
TRIDENT PIER               70 80   30/  3/  4 1015.1R
28.4N   80.5W                 79                N/A     2/11
27.6N   80.2W                 80                N/A     3/ 4

$$
FLZ050-056-061-142-242-148-248-149-249-151-251-155-255-
160-260-231400-
WEST CENTRAL FLORIDA

CITY           SKY/WX    TMP DP  RH WIND       PRES   REMARKS
CRYSTAL RIVER  FAIR      61  48  63 NE5       30.02S
INVERNESS      FAIR      61  50  67 NE5       30.03R
BROOKSVILLE    SUNNY     62  53  72 NE9       30.02R
ZEPHYRHILLS      N/A     59  55  88 NE7       30.02S
CLEARWATER     SUNNY     67  57  70 NE9       30.00R
TAMPA INTL     MOSUNNY   66  54  65 NE6       30.00R
TAMPA EXEC     SUNNY     64  55  72 NE7       30.01S
PLANT CITY     SUNNY     66  57  72 NE7       30.02S
MACDILL AFB    SUNNY     66  54  63 NE13      30.00R
ST PETERSBURG  SUNNY     70  60  70 NE18      29.98R
SARASOTA       SUNNY     68  58  70 NE12      29.96R
VENICE           N/A     70  59  68 MISG      29.98R

STATION/POSITION SKY/WX   TEMP    WIND        PRES    WAVE   SWELL
                          AIR SEA DIR/SP/G            HT/PER HT/PER
                          (F)     (DEG/KT/KT) (MB)    (FT/S) (FT/S)
CEDAR KEY                  57      40/  9/ 12 1017.0R
28.5N   84.5W              71 81   70/ 16/ 19 1016.0R   5/ 6
27.3N   84.3W                 82                N/A     6/ 6
CLEARWATER BEACH NOT AVBL
MIDDLE TAMPA BAY           69      70/ 18/ 21 1015.6R
VENICE                     69 79   50/ 12/ 15 1014.4R

$$
FLZ066-069-070-075>078-162-262-165-265-231400-
SOUTHWEST FLORIDA AND KEYS

CITY           SKY/WX    TMP DP  RH WIND       PRES   REMARKS
PUNTA GORDA    CLOUDY    70  61  73 NE10      29.98R
FT MYERS       SUNNY     69  63  81 NE9       29.94R
SOUTHWEST INTL MOSUNNY   69  63  81 NE8       29.94R
NAPLES         PTSUNNY   72  66  81 NE9       29.93R
MARATHON       CLOUDY    77  76  96 E6        29.88R
KEY WEST NAS   LGT RAIN  77  73  87 NE7       29.88R
KEY WEST INTL  CLOUDY    78  76  93 NE6       29.88R

STATION/POSITION SKY/WX   TEMP    WIND        PRES    WAVE   SWELL
                          AIR SEA DIR/SP/G            HT/PER HT/PER
                          (F)     (DEG/KT/KT) (MB)    (FT/S) (FT/S)
VENICE                     69 79   50/ 12/ 15 1014.4R
NAPLES                     71 82   50/  6/  8 1014.1R
26.0N   85.6W              79 82   50/ 19/ 23 1012.7R   6/ 7
DRY TORTUGAS               79      90/ 19/ 20 1011.1R
NW FL BAY                  77      80/ 12/ 14 1012.1R
SAND KEY                   79      90/ 17/ 19 1011.5R
SOMBRERO KEY               78     100/ 15/ 18 1012.3R
LONG KEY                   77 78  110/ 10/ 11 1012.6R
MOLASSES REEF              78 83  100/ 12/ 14 1012.5R

$$
FLZ067-068-071>074-168-172>174-231400-
SOUTHEAST FLORIDA

CITY           SKY/WX    TMP DP  RH WIND       PRES   REMARKS
W PALM BEACH   LGT RAIN  76  69  79 N5        29.93R
FT LAUDER-EXEC LGT RAIN  75  72  90 NE5       29.93R
FT LAUDERDALE  CLOUDY    77  73  87 N6        29.92R
POMPANO BEACH  LGT RAIN  75  72  90 NE9       29.93R FOG
PEMBROKE PINES LGT RAIN  75  73  93 NE7       29.94R
OPA LOCKA      LGT RAIN  75  73  93 NE6       29.93R
MIAMI          LGT RAIN  75  72  90 NE3       29.93R
WEST KENDALL   CLOUDY    77  73  87 NE3       29.93R
HOMESTEAD      CLOUDY    75  71  89 N6        29.92R

STATION/POSITION SKY/WX   TEMP    WIND        PRES    WAVE   SWELL
                          AIR SEA DIR/SP/G            HT/PER HT/PER
                          (F)     (DEG/KT/KT) (MB)    (FT/S) (FT/S)
PORT EVERGLADES            76      70/ 10/ 12 1013.1
VIRGINIA KEY               77 81  120/  5/  7 1013.5R
LAKE WORTH                 77 82   60/ 13/ 16 1013.2F
FOWEY ROCKS                78 81  110/  9/ 10 1013.3R
SETTLEMENT POINT           78      50/ 17/ 19 1014.3R

$$




USA.gov is the U.S. government's official web portal to all federal, state and local government web resources and services.